St. Augustine, FL

1:53 AM EST on December 15, 2017 (GMT -0500)
Saint Augustine

Weather History for KSGJ - October, 2011

Change the Weather History Date:

Saturday, October 15, 2011

  Actual Average Record
Temperature  
Mean Temperature 68 °F -  
Max Temperature 79 °F 76 °F 86 °F (1985)
Min Temperature 57 °F 63 °F 45 °F (1977)
Cooling Degree Days 3    
Growing Degree Days 18 (Base 50)    
Moisture  
Dew Point 59 °F    
Average Humidity 72    
Maximum Humidity 90    
Minimum Humidity 50    
Precipitation  
Precipitation 0.00 in - - ()
Sea Level Pressure  
Sea Level Pressure 30.06 in    
Wind  
Wind Speed 3 mph (North)    
Max Wind Speed 14 mph    
Max Gust Speed -    
Visibility 10 miles    
Events      
Averages and records for this station are not official NWS values.
T = Trace of Precipitation, MM = Missing Value Source: NWS Daily Summary

Daily Weather History Graph

Daily Weather History Graph

Search for Another Location

Airport or City:

Trip Planner

Search our weather history database for the weather conditions in past years. The results will help you decide how hot, cold, wet, or windy it might be!

Date:

Astronomy

Oct. 15, 2011 Rise Set
Actual Time 7:27 AM EDT 6:54 PM EDT
Civil Twilight 7:02 AM EDT 7:18 PM EDT
Nautical Twilight 6:35 AM EDT 7:46 PM EDT
Astronomical Twilight 6:07 AM EDT 8:14 PM EDT
Moon 9:08 PM EDT 10:32 AM EDT
Length of Visible Light 12h 16m
Length of Day
11h 27m
Waning Gibbous, 89% of the Moon is Illuminated
Oct 15
Waning Gibbous
Oct 19
Last Quarter
Oct 26
New
Nov 2
First Quarter
Nov 10
Full

Hourly Weather History & Observations

Time (EDT) Temp. Dew Point Humidity Pressure Visibility Wind Dir Wind Speed Gust Speed Precip Events Conditions
12:58 AM 62.1 °F 57.9 °F 86% 30.01 in 10.0 mi Calm Calm - N/A   Clear
1:58 AM 61.0 °F 57.0 °F 87% 30.02 in 10.0 mi Calm Calm - N/A   Clear
2:58 AM 61.0 °F 57.0 °F 87% 30.01 in 10.0 mi West 3.5 mph - N/A   Clear
3:58 AM 61.0 °F 55.9 °F 83% 30.01 in 10.0 mi West 4.6 mph - N/A   Clear
4:58 AM 60.1 °F 55.9 °F 86% 30.01 in 10.0 mi West 4.6 mph - N/A   Clear
5:58 AM 61.0 °F 55.9 °F 83% 30.02 in 10.0 mi WNW 4.6 mph - N/A   Clear
6:58 AM 59.0 °F 55.0 °F 87% 30.03 in 10.0 mi Calm Calm - N/A   Clear
7:58 AM 57.9 °F 55.0 °F 90% 30.05 in 10.0 mi SW 3.5 mph - N/A   Clear
8:58 AM 59.0 °F 55.0 °F 87% 30.07 in 10.0 mi Calm Calm - N/A   Clear
9:58 AM 63.0 °F 57.9 °F 84% 30.09 in 10.0 mi Calm Calm - N/A   Clear
10:58 AM 71.1 °F 57.0 °F 61% 30.09 in 10.0 mi NNW 3.5 mph - N/A   Clear
11:58 AM 78.1 °F 57.9 °F 50% 30.09 in 10.0 mi North 13.8 mph - N/A   Clear
12:58 PM 78.1 °F 59.0 °F 52% 30.09 in 10.0 mi NNE 8.1 mph - N/A   Clear
1:58 PM 78.1 °F 60.1 °F 54% 30.08 in 10.0 mi NE 9.2 mph - N/A   Clear
2:45 PM 78.8 °F 59.0 °F 51% 30.06 in 10.0 mi NE 8.1 mph - N/A   Clear
2:58 PM 78.1 °F 59.0 °F 52% 30.06 in 10.0 mi NE 8.1 mph - N/A   Clear
3:58 PM 79.0 °F 60.1 °F 52% 30.06 in 10.0 mi East 6.9 mph - N/A   Clear
4:58 PM 79.0 °F 60.1 °F 52% 30.06 in 10.0 mi ESE 8.1 mph - N/A   Clear
5:58 PM 78.1 °F 61.0 °F 56% 30.06 in 10.0 mi ESE 4.6 mph - N/A   Clear
6:58 PM 75.9 °F 62.1 °F 62% 30.08 in 10.0 mi Calm Calm - N/A   Clear
7:58 PM 71.1 °F 64.0 °F 78% 30.09 in 10.0 mi Calm Calm - N/A   Clear
8:58 PM 69.1 °F 63.0 °F 81% 30.10 in 10.0 mi Calm Calm - N/A   Clear
9:58 PM 69.1 °F 63.0 °F 81% 30.11 in 10.0 mi Calm Calm - N/A   Clear
10:58 PM 69.1 °F 62.1 °F 78% 30.12 in 10.0 mi Calm Calm - N/A   Clear
11:58 PM 66.9 °F 61.0 °F 81% 30.12 in 10.0 mi Calm Calm - N/A   Clear